Вернуться в каталог

JILIN-1 GAOFEN 07C 03 XING

АктивенНаукаSSO
NORAD 68698·PAYLOAD·🇨🇳 China
Это название спутника еще не подтверждено официальными источниками.

Запущен Apr 14, 2026 с Jiuquan Satellite Launch Center

Loading…

Ближайшие Пролёты (ближайшие 24 часа)

TLE

СвежийSource: Space-Track

Эпоха: Sep 14, 2026, 14:58 UTC

1 68698U 26080H   26257.62417694  .00004596  00000-0  29431-3 0  9990
2 68698  97.6580 333.1342 0018581 123.9823 236.3174 15.08923405 23114

Отслеживайте JILIN-1 GAOFEN 07C 03 XING в реальном времени с AllMySat

Download on the App Store